STARLINK-11438, 62888

Orbit data source: Space-Track

STARLINK-11438, 62888 is a payload satellite owned by SpaceX/Seattle (US) in LEO that was launched on Tue, 04 Feb 2025 UTC via an FALCON 9 launch vehicle from the Air Force Eastern Test Range (AFETR). Payload-class satellites include a variety of spacecraft equipped with specific instruments for various scientific and technological missions. These include communications satellites like Starlink; space stations such as the ISS; scientific satellites like the Hubble; Earth observation satellites from companies like Planet Labs, Umbra, and HawkEye 360; GPS; miniature CubeSats for education and research; and military/defense satellites.

Loading next visibility...
Identifier
62888, 2025-024K
Orbit
LEO
Last TLE update
16 hours ago
Origin
Manufacturer
SpaceX/Seattle
Mission
Operational Commercial Communications
Bus & Motor
STARLINK V2M, Unknown motor
Mass
730 kg wet, ~700 kg dry
Launch date (UTC)
2025-02-04 (5 months ago)
Launch vehicle
FALCON 9
Launch site
Air Force Eastern Test Range (AFETR)
Object type
Payload
Rocket body
Debris
Shape & HBR
Box + 2 Pan, 29 m
Radar Cross Section
36.964 m², Large (>1 m²)

Expand to show TLE details & history

TLE from 16 hours ago
0 STARLINK-11438
1 62888U 25024K   25183.19615107  .00129289  00000-0  99269-3 0  9993
2 62888  42.9991 251.0615 0001632 249.7757 110.2935 15.70906542 24074
Epoch: 2025-07-02T04:42Z
TLE epoch observation values (Epoch: 2025-07-02T04:42:27.452Z)
Latitude
-0.00003°
Longitude
-100.03364°
Altitude
356.457 km
Speed
7.697 km/s
True Right ascension
16h 44m 14s
True Declination
0° 00' 00"
Sunlit
Object was in full shadow at epoch
Visualization orbit readout
Latitude
37.14402°
Longitude
-50.05431°
Altitude
358.736 km
Speed
7.699 km/s
Apparent Right ascension
20h 01m 04s
Apparent Declination
0° 08' 04"
Sunlit
Object is in full shadow
Visualization observer readout
Local Sidereal Time
07:57:41
Azimuth
358.678° N
Elevation
-50.211°
Doppler factor
1
Orbital elements
Apogee altitude
359.386 km
Perigee altitude
357.187 km
Semi-major axis
6,736.424 km
Eccentricity
0.00016
Inclination
42.9991°
RAAN
251.0615°
Arg. of periapsis
249.7757°
True anomaly
Unknown
Mean anomaly
110.2935°
Eccentric anomaly
Unknown
Mean motion
3.92554 °/min
Orbital period
91.71 mins
BSTAR
0.00099269
Loading maneuver chart data...
Loading SW <> Apogee altitude chart data...
Loading historical data...
Loading historical data...
Loading historical data...
Loading historical data...
Loading historical data...
Loading historical data...
Loading historical data...

STARLINK-11438 Visibility forecast

Observer location: undefined°, undefined°

Span
Click to sort rows by Start time (UTC) header in descending order
Start Az.
Max El. time (UTC)
Max El. Az.
Max El.
End time (UTC)
End Az.
4 mins2025-07-03 08:25:41.651Z238.219° WSW2025-07-03 08:27:41.651Z104.019° ESE40.389°2025-07-03 08:29:41.651Z75.66° E
4 mins2025-07-03 10:01:41.651Z289.1° WNW2025-07-03 10:03:41.651Z10.691° NNE34.615°2025-07-03 10:05:41.651Z66.302° ENE
4 mins2025-07-03 11:38:41.651Z304.519° NW2025-07-03 11:39:41.651Z0.853° NNE41.129°2025-07-03 11:42:41.651Z95.063° ESE
|